Vorticity
nan nan nan nan nan nan nan nan nan nan nan nan nan nan nan nan nan nan nan nan nan nan nan nan nan nan nan nan nan nan nan nan nan nan nan nan nan nan nan nan nan nan nan
nan 5 6 6 6 6 6 6 7 6 6 6 6 6 6 6 6 6 5 5 6 7 7 6 5 6 5 6 5 4 4 4 4 3 4 -1 3 8 9 7 10 9 nan
nan 3 7 4 6 7 7 6 6 6 6 6 6 6 7 6 6 6 6 7 6 5 6 6 4 6 5 4 6 5 4 3 1 2 -4 1 4 5 7 7 7 7 nan
nan 8 4 5 6 8 7 5 6 6 5 6 6 7 6 7 6 6 6 7 7 5 5 5 5 4 5 5 5 4 2 1 8 13 3 3 4 5 7 7 8 8 nan
nan 9 7 8 6 6 7 6 5 6 7 7 6 6 6 7 6 6 6 6 5 5 4 4 4 4 6 6 5 3 3 5 7 12 14 9 6 3 6 9 5 4 nan
nan 10 7 7 8 7 7 7 7 7 6 6 7 7 7 6 6 5 5 6 7 7 5 7 8 6 5 5 4 3 4 9 17 6 4 5 7 6 5 7 6 6 nan
nan 0 5 7 7 6 7 8 7 7 7 7 7 7 7 7 7 5 5 6 10 10 6 7 8 8 6 6 4 3 2 9 14 5 7 5 5 5 5 6 7 5 nan
nan 6 4 6 7 7 6 7 7 8 7 7 8 8 8 7 6 4 5 6 7 7 6 5 6 7 6 5 4 3 1 6 13 5 4 5 5 5 5 4 6 6 nan
nan 8 5 5 2 4 6 6 8 7 8 7 8 7 8 7 6 4 4 4 5 6 5 6 6 6 6 5 4 2 2 9 10 4 4 4 5 6 5 5 5 5 nan
nan 8 9 5 8 8 4 5 8 6 6 7 6 5 3 5 7 5 4 2 4 5 7 6 5 5 5 5 4 4 4 10 5 7 5 6 6 5 5 5 5 5 nan
nan 7 8 2 7 6 8 4 6 6 4 4 6 8 -1 3 5 2 3 7 4 4 5 5 5 4 2 5 5 3 7 12 6 7 6 6 5 5 5 5 5 5 nan
nan 8 6 9 10 5 5 7 4 3 3 3 7 5 3 3 7 8 4 6 5 4 3 4 5 5 4 3 10 10 8 7 5 8 8 8 6 4 5 5 5 5 nan
nan 6 4 7 9 13 6 7 7 6 3 5 8 10 12 7 7 1 5 7 6 6 5 9 6 2 7 10 12 15 10 6 6 7 8 6 6 5 5 5 5 5 nan
nan 6 5 6 4 8 7 7 9 10 10 7 3 9 10 7 7 6 6 7 7 11 8 9 9 12 7 6 8 8 11 9 9 9 8 6 4 4 5 5 5 5 nan
nan 7 4 5 8 5 9 7 7 9 7 11 8 5 6 7 6 8 5 6 11 6 9 8 8 8 5 7 4 7 8 8 9 8 11 10 4 4 5 5 5 5 nan
nan 8 5 6 7 5 8 9 5 7 9 5 8 7 8 7 6 3 9 9 7 6 6 4 7 11 12 5 4 7 9 6 8 10 9 10 9 5 5 5 5 5 nan
nan 8 5 6 6 8 8 4 8 6 3 5 8 6 9 6 6 9 4 5 10 10 9 6 7 9 7 6 8 7 7 7 8 6 9 9 10 10 6 5 5 6 nan
nan 8 6 7 7 3 4 6 8 11 6 7 6 7 5 7 6 9 7 5 5 6 7 8 10 9 6 5 8 9 7 9 4 8 6 10 11 9 12 7 6 5 nan
nan 7 8 6 6 6 5 4 7 9 4 10 8 10 8 9 9 5 10 9 4 7 9 8 5 9 8 8 8 6 7 9 5 7 10 6 6 8 17 12 7 7 nan
nan 6 8 5 5 8 7 4 8 6 8 7 8 11 7 8 6 6 11 5 7 12 5 3 6 10 9 7 5 10 12 8 10 8 7 8 9 8 5 13 12 12 nan
nan 6 2 6 7 6 9 7 4 6 10 7 9 8 7 6 6 7 7 6 7 10 9 10 9 3 9 7 9 9 9 8 8 9 7 8 5 9 8 7 9 15 nan
nan 6 5 6 6 4 3 5 8 11 7 9 9 7 8 6 7 7 6 11 11 4 6 6 7 11 8 8 11 10 9 8 8 8 8 9 8 10 6 7 9 4 nan
nan 6 7 5 7 4 5 10 5 7 11 8 6 9 10 8 5 8 8 7 7 6 13 6 6 8 8 7 7 11 10 14 8 7 6 10 10 7 8 4 7 9 nan
nan 8 8 7 5 6 8 5 7 5 10 5 9 14 10 9 8 6 7 5 5 7 11 8 6 5 11 9 9 7 7 7 12 10 9 8 10 6 3 8 12 6 nan
nan 9 8 9 5 8 6 5 12 5 4 8 13 8 7 14 9 8 8 8 7 8 6 6 8 8 7 9 13 3 8 11 2 10 15 6 6 11 8 7 4 10 nan
nan nan nan nan nan nan nan nan nan nan nan nan nan nan nan nan nan nan nan nan nan nan nan nan nan nan nan nan nan nan nan nan nan nan nan nan nan nan nan nan nan nan nan
CAPE
616 816 1286 1556 1413 1268 1695 1876 1936 1868 1987 1911 2115 2253 2313 2186 1856 2209 2348 2092 2422 2409 2017 1700 1594 1568 1814 1734 1725 1171 1759 1778 1962 1570 1414 1898 1722 1605 1577 1392 2048 1434 1756
620 656 1589 1436 1708 1530 1461 1749 2133 2242 2171 2411 2377 2156 2185 2183 1931 1738 2391 2220 2394 2232 1870 1852 1767 1629 1570 1639 1755 1293 1407 1679 1734 1605 1617 1977 1924 1894 1946 2096 2208 1709 1828
705 886 1467 1389 1136 1646 1477 1812 2205 2291 2331 2377 2371 2204 2038 2087 2156 2338 1995 2066 2097 2108 2046 1907 1708 834 935 1712 1858 1837 1548 1725 1266 1363 2490 852 1649 2019 2038 1977 1970 1872 1845
745 1005 509 1805 1720 1668 1320 1729 1975 1940 2218 2375 2427 2354 2254 2370 2340 2083 2118 2137 2380 2401 1683 1313 1252 1460 1434 1726 1703 1739 1453 1356 1394 2137 1281 1040 1019 1887 1676 1880 1783 1770 1851
794 464 1767 1774 1790 1737 1730 1812 1907 1864 2193 2251 2402 2375 2264 2114 2276 2072 2105 2173 1746 1728 1860 1781 1800 1821 1593 1730 1688 1591 1325 1119 1335 1070 879 1448 1157 1459 1743 1664 1980 1934 1962
712 762 1444 1690 1656 1708 1958 1882 1815 1922 2220 2309 2353 2212 2232 2355 2244 2179 2038 2027 1863 1888 1969 2065 2155 1814 1902 1795 1554 1411 1441 1235 1394 307 298 653 1028 1328 1710 1912 2033 1978 1971
567 706 1072 1683 1827 1766 1757 1827 1903 2056 2246 2197 2307 2199 2236 2387 2440 2167 2059 2128 2192 2344 2335 2289 2518 2353 1687 1674 1324 1446 1396 1502 378 969 293 539 875 1422 1397 1873 1872 1688 1527
604 689 995 1771 1756 1661 1857 1830 1973 1943 2182 2249 2128 2115 2208 2056 2426 2265 2269 2330 2347 2374 2352 2291 1843 1470 1485 1255 1303 1445 1718 2012 851 1266 748 375 1352 1063 1049 1202 1455 1531 1369
505 607 718 1088 1594 1840 1762 1896 1963 2053 2184 1970 1952 1976 2294 2374 2389 2549 2351 2293 2164 2220 2107 2296 2254 1449 1153 1056 1329 1159 1299 1618 1102 1473 563 588 1505 890 841 935 1008 955 914
411 416 584 1072 1393 969 1407 1855 2004 2104 2167 2151 2046 2100 2442 2323 2460 2534 2697 2532 2192 2239 2015 2208 2370 1859 1527 1257 1017 626 926 1389 192 182 239 1157 1371 758 742 648 606 605 645
663 236 500 600 1018 1210 1020 1648 1959 2071 2303 2182 2039 2080 2111 1853 1657 2131 2426 2105 2111 2202 2266 2207 2351 2425 2204 1933 1488 1311 1417 308 100 21 205 1255 963 575 580 576 573 578 749
183 146 520 740 860 1118 541 1678 1536 1458 1703 1844 2166 2175 2896 2111 2267 1281 1919 1944 2097 2226 2372 2403 2295 2789 2886 1950 1430 1489 157 116 95 17 702 1590 1582 1019 880 789 858 906 899
128 13 599 1105 315 210 1031 851 1503 1453 1135 1949 2335 2622 2753 1055 1169 1142 1679 1832 1974 2233 1974 2299 2059 1773 1228 1679 690 411 358 251 181 207 712 1105 986 1018 833 892 892 1057 1110
74 14 612 759 787 381 401 663 1036 817 1054 1950 1799 1448 1402 996 1527 2132 1926 1359 1976 1988 1862 1957 1571 1854 1356 1402 739 624 291 219 226 194 801 1614 950 902 854 807 890 963 1060
10 19 697 1134 1239 977 505 551 937 701 797 996 1350 1256 1128 1707 1695 1812 2199 2082 1876 2334 2501 1662 1328 1480 1408 1196 676 678 379 405 175 9 0 1168 1122 1290 1364 1165 1128 1072 1058
7 104 677 874 1163 1625 915 977 862 775 590 865 1037 1486 1703 1963 2466 1842 1801 2442 1416 2512 2690 1406 1752 1102 1396 608 973 805 474 456 703 217 32 407 996 986 1200 1408 1272 1338 1392
15 257 657 719 802 1650 1594 999 1067 567 711 1200 1403 1763 1697 1788 2261 2144 1946 2158 1765 1753 2060 1928 1279 1056 552 371 1025 950 745 885 1057 1153 747 790 756 1046 1170 1231 1415 1549 1596
27 342 364 356 497 889 1636 2134 2076 1132 1239 1619 1339 1552 1985 2210 1937 2352 1529 2224 1404 2454 1036 1412 800 725 703 784 1019 1106 880 888 1204 1375 1437 1651 1812 1362 1271 1355 1318 1532 1684
184 361 337 523 696 1352 1002 1441 1825 1560 1913 1524 1591 1949 1981 1936 2120 2574 2921 2004 2753 1761 1239 1699 709 1758 932 749 1029 1018 1027 983 1490 1135 1891 1999 1812 2139 1817 2012 2120 1856 1884
352 442 370 395 1611 1723 930 1086 1538 1567 1753 1677 1829 2029 1855 1846 1922 2586 1726 1683 2653 2465 1395 1779 3346 1093 1478 1259 899 883 1000 1051 1260 1390 1729 1874 2005 2140 1538 2322 2917 2242 2770
413 523 597 1772 1325 1365 1397 1047 1701 1554 1510 1316 2029 1688 1800 1774 1880 2316 2196 1978 2192 3085 2770 1612 1741 2219 717 826 1948 809 713 1067 1320 1272 1502 1714 1734 1314 1694 2494 2586 2835 2714
329 588 836 1519 1850 1918 1425 1944 1991 1463 1802 1727 2003 1690 1764 1671 1954 2072 2538 2078 2584 1903 2205 2140 2468 2201 718 958 1645 1347 734 924 944 955 1141 1373 1619 1118 1582 2011 2358 2723 2951
455 508 803 1135 1837 1592 1458 2128 1704 2050 2209 1598 2018 1771 1758 1691 1758 2150 2206 2166 1923 3153 2194 2256 1773 2397 1921 964 2341 2791 1773 1865 874 1005 1169 1396 1691 1216 1422 1829 1774 2147 2595
753 853 1084 1152 1684 1673 1215 2304 1235 1897 1806 1383 1365 1772 2257 1674 1562 1770 1879 1940 2422 2686 3898 2683 1698 3403 2691 1165 804 1607 2503 2967 2725 917 747 1141 1237 1213 1347 1659 1518 2060 2294
647 900 1153 1387 1559 1605 1546 2000 1338 1329 1884 1302 1391 1977 1536 2064 1658 1362 1760 1888 2215 2081 2089 3511 2452 3053 1736 2639 1801 1377 2474 1510 1827 1830 1245 840 1004 871 1137 1398 1185 1345 2075
611 1213 1125 1671 1906 1579 1690 1570 1368 1194 1254 1998 1163 1806 1542 1893 1614 1649 1770 1982 2227 2307 2269 2163 2384 2402 3597 3315 2809 2733 2148 1709 2263 2352 1225 1205 988 964 890 934 1309 1346 1407